Retour au catalogue

KUIPER-00253

ActifCommunicationsLEO
NORAD 68584·PAYLOAD·🇺🇸 United States

Lancé Apr 4, 2026 depuis Cape Canaveral Space Force Station

Loading…

Prochains Passages (prochaines 24 heures)

TLE

FraisSource: CelesTrak SupGP

Époque: Sep 14, 2026, 18:58 UTC

1 68584C 26072M   26257.79040509 -.00000510  00000+0 -66737-4 0  2571
2 68584  51.9019 146.9624 0001056  92.6264 128.1566 14.79928247    14

Suivez KUIPER-00253 en temps réel avec AllMySat

Download on the App Store